Location: Antist
(43.1184°N, 0.1270°E)
Time: 10:19:46
(UTC+00:00)

CZ-4 R/B - Pass Details

Date: 19 January 2020
Orbit: 534 x 597 km, 97.7° (Epoch: 18 February)

Event Time Altitude Azimuth Distance (km) Brightness Sun altitude
Rises 18:57:42 0° 189° (S) 2,723 5.1 -22.2°
Reaches altitude 10° 18:59:58 10° 200° (SSW) 1,844 4.3 -22.6°
Maximum altitude 19:03:33 31° 264° (W) 1,006 3.3 -23.3°
Drops below altitude 10° 19:07:13 10° 327° (NNW) 1,893 4.4 -24.0°
Sets 19:09:36 0° 338° (NNW) 2,808 5.1 -24.4°
